Flag for Russia Weather past 2 weeks in Petropavlovsk-Kamchatsky, Russia

Now
55 °F

Sprinkles. Fog.


Feels Like: 55 °F
Forecast: 51 / 64 °F
Wind: 1 mph from North

Location: Petropavlovsk-Kamchatskij

Current Time: Aug 3, 2015 at 12:41:00 AM

Latest Report: Aug 3, 2015 at 12:00 AM


Visibility: 2 mi

Pressure: 29.65 "Hg

Humidity: 88%

Dew point: 52 °F

Location of Petropavlovsk-KamchatskyLocation

Historic Weather in Petropavlovsk-Kamchatsky — Graph

°F

Petropavlovsk-Kamchatsky temperature yesterday

Maximum temperature yesterday: 68 °F (at 3:30 PM)
Minimum temperature yesterday: 55 °F (at 12:00 AM)
Average temperature yesterday: 60 °F

Past Weeks' High & Low Weather Summary

 TemperatureHumidityPressure
High75 °F (Jul 22, 1:30 PM)94% (Jul 24, 12:00 AM)30.12 "Hg (Jul 24, 12:00 AM)
Low46 °F (Jul 20, 5:00 AM)35% (Jul 20, 12:00 PM)29.59 "Hg (Aug 2, 4:00 AM)
Average59 °F78%29.86 "Hg
* Reported Jul 18 11:00 PM — Aug 2 11:30 PM, Petropavlovsk-Kamchatsky, Weather by CustomWeather, © 2015

Note: Actual official high and low records may vary slightly from our data, if they occured in-between our weather recording intervals... More about our weather records

Advertising

Petropavlovsk-Kamchatsky weather history for previous 24 hours

 ConditionsComfort  
Time TempWeatherWind HumidityBarometerVisibility
11:30 PM
Sun, Aug 2
55 °FSprinkles. Fog.3 mph88%29.65 "Hg3 mi
11:00 PM55 °FSprinkles. Fog.1 mph88%29.65 "Hg3 mi
10:30 PM55 °FSprinkles. Fog.3 mph88%29.65 "Hg2 mi
10:00 PM57 °FSprinkles. Passing clouds.3 mph82%29.65 "Hg3 mi
9:00 PM59 °FPartly sunny.3 mph77%29.62 "HgN/A
8:00 PM59 °FPartly sunny.8 mph77%29.62 "HgN/A
6:30 PM61 °FPartly sunny.8 mph72%29.62 "HgN/A
6:00 PM63 °FPartly sunny.8 mph68%29.59 "HgN/A
5:30 PM63 °FPartly sunny.8 mph73%29.59 "HgN/A
5:00 PM63 °FPartly sunny.10 mph73%29.59 "HgN/A
4:30 PM64 °FPartly sunny.10 mph68%29.59 "HgN/A
4:00 PM68 °FPartly sunny.1 mph64%29.59 "HgN/A
3:30 PM68 °FPartly sunny.1 mph60%29.59 "HgN/A
3:00 PM66 °FPartly sunny.1 mph64%29.59 "HgN/A
2:30 PM66 °FPartly sunny.1 mph64%29.62 "HgN/A
2:00 PM64 °FPartly sunny.3 mph68%29.62 "HgN/A
1:30 PM64 °FBroken clouds.3 mph68%29.62 "HgN/A
1:00 PM63 °FBroken clouds.3 mph73%29.62 "HgN/A
12:30 PM63 °FBroken clouds.3 mph73%29.62 "HgN/A
12:00 PM61 °FSprinkles. Broken clouds.3 mph77%29.62 "HgN/A
11:30 AM61 °FPartly sunny.1 mph77%29.62 "HgN/A
11:00 AM61 °FPartly sunny.No wind72%29.62 "HgN/A
10:30 AM61 °FPartly sunny.1 mph72%29.62 "HgN/A
10:00 AM59 °FBroken clouds.1 mph82%29.62 "HgN/A
9:30 AM59 °FBroken clouds.No wind82%29.59 "HgN/A
9:00 AM59 °FBroken clouds.1 mph82%29.59 "HgN/A
8:30 AM57 °FBroken clouds.1 mph88%29.59 "HgN/A
8:00 AM57 °FPartly sunny.No wind88%29.59 "HgN/A
7:30 AM55 °FBroken clouds.3 mph94%29.59 "HgN/A
7:00 AM55 °FBroken clouds.3 mph94%29.59 "HgN/A
6:00 AM55 °FBroken clouds.1 mph88%29.59 "HgN/A
5:00 AM55 °FMostly cloudy.1 mph88%29.59 "HgN/A
4:00 AM55 °FMostly cloudy.3 mph94%29.59 "HgN/A
3:00 AM55 °FSprinkles. Mostly cloudy.3 mph88%29.62 "HgN/A
2:00 AM55 °FSprinkles. Fog.1 mph94%29.62 "Hg3 mi
1:00 AM55 °FSprinkles. Fog.3 mph94%29.68 "Hg3 mi
12:00 AM55 °FSprinkles. Fog.8 mph94%29.68 "Hg3 mi
Weather by CustomWeather, © 2015

See weather overviewHow to use our weather pages